[[{"header":{"parameterUnit":"m.s-1","parameterCategory":1,"la1":30.2991,"la2":30.254,"lo1":-89.0895,"lo2":-89.0444,"dy":0.0017,"dx":0.0017,"nx":28,"ny":28,"refTime":"2025-11-08T09:00:00:Z","depth":0,"parameterNumber":2,"parameterNumberName":"U-component_of_WINDS"},"data":[0,0,0,0,0,0,0,0,0,0,0,0,0,0,0,0,0,0,0,0,0,0,0,0,0,0,0,0,0,0,0,0,0,0,0,0,0,0,0,0,0,0,0,0,0,0,0,0,0,0,0,0,0,0,0,0,0,0,2.9786,2.9786,0,2.9852,2.9852,2.9853,2.9842,2.9841,2.9839,2.9838,2.9906,2.9908,2.9911,0,0,0,0,0,0,0,0,0,0,0,0,0,2.9651,2.9653,2.9785,2.9786,2.9787,2.9852,2.9852,2.9853,2.9842,2.984,2.9839,2.9838,2.9905,2.9908,2.9912,0,0,0,0,0,0,0,0,0,0,0,0,0,2.9712,2.9654,2.9785,2.9789,2.979,2.9851,2.9852,2.9854,2.9842,2.984,2.9839,2.9837,2.9904,2.9908,2.9912,2.9973,0,0,2.9925,2.9927,0,0,0,0,0,0,0,0,2.9709,2.9717,2.9788,2.9789,2.979,2.9837,2.983,2.9894,2.9843,2.9822,2.9838,2.9836,2.9884,2.989,2.9906,2.9977,2.9979,2.9926,2.9928,2.993,2.9931,0,0,0,0,0,0,0,2.9704,2.9714,2.9812,2.9789,2.979,2.9788,2.9795,2.9842,2.9862,2.9824,2.9823,2.9831,2.9884,2.9902,2.9908,2.998,2.9925,2.9929,2.9932,2.9934,3.0108,3.011,0,0,0,0,0,0,2.9699,2.9711,2.9809,2.9814,2.9744,2.9792,2.98,2.9824,2.9862,2.9866,2.9833,2.9831,2.9895,2.9903,2.991,2.9987,2.993,2.9934,2.9937,3.0106,3.0109,3.0111,0,0,0,0,0,0,2.9696,2.9708,2.9807,2.9762,2.9775,2.9796,2.9823,2.9826,2.9843,2.9868,2.9872,2.9847,2.9894,2.9904,2.9959,2.9989,2.9936,2.994,3.0104,3.0107,3.011,3.0139,0,0,0,0,0,0,2.9692,2.9707,2.973,2.9763,2.9777,2.9854,2.9825,2.9828,2.9851,2.9849,2.9882,2.9886,2.9894,2.9952,2.9963,2.9994,2.9943,3.0101,3.0105,3.0109,3.0135,3.0143,3.0149,0,0,0,0,0,2.9687,2.9735,2.9731,2.9743,2.9806,2.9856,2.9864,2.9871,2.9853,2.9877,2.9894,2.9885,2.9984,2.9958,2.997,3.0002,3.0099,3.0104,3.0108,3.0132,3.0141,3.0149,0,0,0,0,0,0,2.9704,2.9739,2.9735,2.9794,2.9822,2.9854,2.9884,2.988,2.9913,2.991,2.9918,2.9925,2.9982,2.9997,2.9968,3.0065,3.0039,3.0046,3.0053,3.0062,3.0068,3.0064,2.9947,0,0,0,0,0,2.9715,2.9752,2.978,2.983,2.9844,2.9862,2.9883,2.9887,2.9916,2.9928,2.9948,2.9977,3.0014,3.0039,3.0074,3.0138,3.0146,3.0166,3.0173,3.0178,3.0185,3.0222,3.0232,3.0126,3.0126,3.0126,0,0,2.9736,2.976,2.9783,2.9834,2.9856,2.9895,2.9871,2.9913,2.9943,2.9934,2.9987,3.0004,3.0036,3.0096,3.0124,3.0111,3.0216,3.0184,3.0188,3.0192,3.0228,3.0238,3.0247,3.0129,3.0128,3.0128,0,0,2.9797,2.9818,2.9863,2.9886,2.992,2.9932,2.9943,2.9976,2.9986,3.004,3.0036,3.0071,3.0135,3.0159,3.018,3.0253,3.0247,3.0264,3.03,3.0336,3.0344,3.0352,3.038,3.039,3.027,3.027,3.027,0,2.982,2.9879,2.9886,2.993,2.9953,2.9948,2.9995,3.0017,3.006,3.0077,3.0062,3.0145,3.0166,3.0233,3.0251,3.0267,3.0281,3.0261,3.0343,3.035,3.0357,3.0384,3.0395,3.0272,3.0272,3.0272,3.0272,0,2.9907,2.9948,2.998,3.0024,3.0051,3.0095,3.0111,3.0137,3.0139,3.0153,3.021,3.0235,3.0278,3.0294,3.0295,3.0362,3.0353,3.0341,3.0314,3.0369,3.0395,3.0405,3.0275,3.0274,3.0274,3.0273,0,0,2.9978,3.0028,3.004,3.0061,3.01,3.0132,3.0177,3.0219,3.0243,3.0273,3.0313,3.0368,3.0358,3.0381,3.0386,3.0418,3.0477,3.0401,3.0402,3.0416,3.0555,3.0565,3.0577,3.0474,3.0476,3.0477,3.0553,0,3.0044,3.0124,3.0134,3.0206,3.0245,3.0242,3.0282,3.031,3.0325,3.0361,3.0377,3.0417,3.0399,3.0414,3.0445,3.0463,3.0505,3.0458,3.0512,3.0513,3.0505,3.059,3.0601,3.0671,3.0563,3.0564,3.0566,0,3.0131,3.0167,3.0243,3.0278,3.0295,3.0331,3.0372,3.0405,3.0439,3.0447,3.0475,3.0476,3.0525,3.0496,3.0564,3.0531,3.0554,3.0567,3.057,3.0576,3.0544,3.06,3.0693,3.0704,3.0581,3.058,3.0579,0,3.0179,3.0245,3.03,3.0318,3.036,3.0386,3.0405,3.0436,3.0462,3.0497,3.0514,3.0555,3.0578,3.061,3.0622,3.06,3.069,3.0662,3.07,3.07,3.072,3.0718,3.0819,3.0732,3.0732,3.0732,3.0731,0,3.0252,3.0299,3.0322,3.0356,3.0409,3.042,3.0473,3.0491,3.0519,3.0558,3.0557,3.0593,3.0607,3.0646,3.0656,3.0712,3.0721,3.0731,3.0733,3.0732,3.0731,3.0747,3.0743,3.0734,3.0734,3.0733,3.0733,0,3.0314,3.0331,3.0391,3.0427,3.0437,3.0475,3.0507,3.054,3.0555,3.0604,3.0616,3.0639,3.0685,3.0701,3.0756,3.0763,3.0829,3.0826,3.0818,3.0819,3.0856,3.0853,3.0972,3.0989,3.0889,3.089,3.0891,0,3.036,3.0396,3.0437,3.0463,3.0484,3.0525,3.0552,3.0565,3.0593,3.0635,3.0664,3.0709,3.0746,3.082,3.0842,3.0885,3.0884,3.0923,3.0891,3.0889,3.0887,3.0886,3.089,3.093,3.0931,3.0931,3.0932,0,3.0441,3.0448,3.0487,3.053,3.0562,3.0596,3.0629,3.065,3.0668,3.07,3.0747,3.0776,3.0834,3.088,3.0924,3.0944,3.0942,3.0942,3.0954,3.0953,3.0947,3.0953,3.0836,3.094,3.0939,3.0938,3.0938,3.0938,3.0498,3.0531,3.0566,3.061,3.0636,3.0668,3.0702,3.0722,3.0762,3.081,3.0815,3.0867,3.0901,3.0961,3.0983,3.1025,3.1014,3.103,3.1034,3.1038,3.1042,3.094,3.1032,3.1032,3.1032,3.1032,3.1032,0,3.058,3.0603,3.0643,3.0691,3.0726,3.0721,3.0758,3.0788,3.0833,3.0866,3.0903,3.0959,3.1004,3.1031,3.1077,3.1105,3.1105,3.1117,3.1115,3.1121,3.1048,3.1034,3.1116,3.1116,3.1116,3.1116,3.1116,3.1116,3.0627,3.0685,3.0696,3.0768,3.079,3.0841,3.0863,3.0893,3.0919,3.0982,3.102,3.1037,3.1068,3.1117,3.1159,3.1166,3.1183,3.1196,3.1202,3.1134,3.1125,3.1117,3.1104,3.1199,3.1199,3.1271,3.1272,3.1273]},{"header":{"parameterUnit":"m.s-1","parameterCategory":1,"la1":30.2991,"la2":30.254,"lo1":-89.0895,"lo2":-89.0444,"dy":0.0017,"dx":0.0017,"nx":28,"ny":28,"refTime":"2025-11-08T09:00:00:Z","depth":0,"parameterNumber":3,"parameterNumberName":"V-component_of_WINDS"},"data":[0,0,0,0,0,0,0,0,0,0,0,0,0,0,0,0,0,0,0,0,0,0,0,0,0,0,0,0,0,0,0,0,0,0,0,0,0,0,0,0,0,0,0,0,0,0,0,0,0,0,0,0,0,0,0,0,0,0,0.0901,0.0902,0,0.0967,0.0968,0.0969,0.093,0.0929,0.0927,0.0925,0.0995,0.0998,0.1002,0,0,0,0,0,0,0,0,0,0,0,0,0,0.0743,0.0746,0.0901,0.0902,0.0903,0.0967,0.0968,0.0969,0.0931,0.0928,0.0926,0.0924,0.0994,0.0998,0.1002,0,0,0,0,0,0,0,0,0,0,0,0,0,0.0811,0.0747,0.0901,0.0892,0.0891,0.0967,0.0968,0.0969,0.0931,0.0928,0.0926,0.0923,0.0992,0.0998,0.1003,0.1092,0,0,0.1019,0.1022,0,0,0,0,0,0,0,0,0.0807,0.0816,0.0892,0.0892,0.0892,0.0938,0.0938,0.101,0.0932,0.0916,0.0925,0.0922,0.0978,0.0985,0.1003,0.1095,0.1098,0.102,0.1023,0.1025,0.1027,0,0,0,0,0,0,0,0.0802,0.0813,0.0927,0.0893,0.0893,0.0884,0.0891,0.0951,0.0962,0.0917,0.0915,0.0923,0.0978,0.0998,0.1005,0.1099,0.102,0.1025,0.1028,0.103,0.1264,0.1267,0,0,0,0,0,0,0.0798,0.081,0.0925,0.0929,0.0842,0.0889,0.0896,0.0926,0.0961,0.0964,0.0925,0.0921,0.099,0.0998,0.1007,0.1111,0.1025,0.103,0.1034,0.1261,0.1265,0.1268,0,0,0,0,0,0,0.0795,0.0809,0.0923,0.0869,0.0883,0.0895,0.0928,0.0929,0.0949,0.0967,0.0969,0.0944,0.0988,0.0999,0.107,0.1113,0.1033,0.1038,0.1257,0.1262,0.1266,0.1322,0,0,0,0,0,0,0.079,0.0808,0.0842,0.087,0.0886,0.0985,0.0931,0.0932,0.0958,0.0953,0.0985,0.0988,0.0987,0.1062,0.1075,0.1119,0.1042,0.1254,0.1259,0.1265,0.1316,0.1327,0.1337,0,0,0,0,0,0.0785,0.0856,0.0844,0.0858,0.0929,0.0988,0.0997,0.0993,0.0962,0.0996,0.1007,0.0987,0.1106,0.107,0.1084,0.113,0.1251,0.1258,0.1264,0.1311,0.1325,0.1337,0,0,0,0,0,0,0.0835,0.086,0.0847,0.0929,0.0956,0.0981,0.1024,0.1009,0.1046,0.104,0.1035,0.1042,0.1115,0.113,0.1089,0.1216,0.1174,0.1183,0.1204,0.1218,0.1228,0.1223,0.1047,0,0,0,0,0,0.0856,0.0901,0.0921,0.0992,0.1006,0.1013,0.1038,0.1033,0.1061,0.1073,0.1089,0.1118,0.1161,0.119,0.1232,0.1318,0.1323,0.1356,0.1367,0.1375,0.1384,0.1427,0.1441,0.129,0.129,0.129,0,0,0.0899,0.0918,0.0948,0.1002,0.1023,0.1069,0.1023,0.1075,0.1109,0.1081,0.1148,0.1161,0.1192,0.127,0.1305,0.1285,0.1427,0.1384,0.1391,0.1395,0.1435,0.145,0.1463,0.1294,0.1293,0.1293,0,0,0.1002,0.1022,0.1081,0.1102,0.1132,0.1136,0.115,0.1177,0.1183,0.125,0.1229,0.1269,0.1345,0.1367,0.1389,0.1495,0.1477,0.1509,0.1564,0.1607,0.1618,0.1629,0.1665,0.1678,0.1517,0.1518,0.1518,0,0.1052,0.1121,0.1115,0.1167,0.1191,0.1165,0.1225,0.1245,0.1289,0.1305,0.1281,0.1373,0.1392,0.1473,0.1499,0.1518,0.1532,0.1505,0.1617,0.1628,0.1637,0.1671,0.1685,0.1521,0.1521,0.152,0.152,0,0.1181,0.1229,0.1273,0.1313,0.1342,0.1398,0.1399,0.1429,0.142,0.1425,0.1492,0.1514,0.1558,0.1577,0.157,0.1656,0.1641,0.1618,0.1574,0.1655,0.1687,0.17,0.1526,0.1525,0.1524,0.1523,0,0,0.1319,0.1351,0.1368,0.1384,0.1414,0.1451,0.1505,0.1546,0.157,0.16,0.1644,0.1707,0.1683,0.1708,0.1703,0.174,0.1819,0.1711,0.1711,0.1728,0.1913,0.193,0.1945,0.1807,0.181,0.1812,0.1909,0,0.1422,0.1515,0.1509,0.1596,0.1639,0.1614,0.166,0.1683,0.1689,0.1726,0.1733,0.1777,0.1744,0.1757,0.1793,0.1802,0.1856,0.1795,0.1847,0.1849,0.1839,0.1962,0.1981,0.2072,0.1922,0.1924,0.1926,0,0.1555,0.1586,0.1678,0.1698,0.1716,0.1758,0.1793,0.1829,0.1854,0.1855,0.188,0.1868,0.1921,0.1876,0.1948,0.1906,0.1927,0.1934,0.1938,0.1942,0.1892,0.1968,0.2101,0.2114,0.1946,0.1944,0.1943,0,0.1644,0.171,0.1772,0.1787,0.1813,0.1842,0.1854,0.1876,0.19,0.1931,0.1946,0.1983,0.2003,0.2032,0.2029,0.1997,0.2102,0.2057,0.2103,0.2103,0.2127,0.2125,0.2263,0.2142,0.2142,0.2142,0.2141,0,0.1759,0.1815,0.1811,0.185,0.1911,0.1903,0.1964,0.1973,0.1992,0.2031,0.2012,0.2048,0.2043,0.208,0.2078,0.2136,0.2146,0.2148,0.2147,0.2149,0.2149,0.2163,0.2156,0.2145,0.2144,0.2144,0.2143,0,0.1869,0.1869,0.1934,0.1952,0.1958,0.2002,0.2017,0.2053,0.2056,0.2105,0.2116,0.2121,0.2163,0.2163,0.2212,0.221,0.2281,0.2273,0.2272,0.227,0.2315,0.231,0.2466,0.2485,0.2353,0.2354,0.2355,0,0.1942,0.1984,0.2005,0.2029,0.2043,0.2082,0.2105,0.2098,0.2123,0.2152,0.2184,0.2223,0.2254,0.2322,0.233,0.2366,0.2358,0.241,0.2363,0.2363,0.2356,0.2353,0.2356,0.2419,0.242,0.2422,0.2423,0,0.207,0.2067,0.2101,0.2135,0.2162,0.2189,0.2213,0.2234,0.2228,0.2257,0.2299,0.2323,0.237,0.2409,0.2443,0.2455,0.2437,0.2437,0.2449,0.2452,0.2448,0.2448,0.2295,0.2433,0.2432,0.2432,0.2431,0.2431,0.2163,0.2198,0.2217,0.2255,0.2272,0.2294,0.2327,0.2333,0.2367,0.2404,0.2398,0.2443,0.2464,0.2507,0.2522,0.2557,0.2539,0.2557,0.2561,0.2566,0.2569,0.2443,0.2563,0.2563,0.2563,0.2562,0.2562,0,0.2289,0.2299,0.2334,0.2366,0.2395,0.2375,0.24,0.2425,0.2465,0.2486,0.2516,0.2562,0.2598,0.2608,0.2642,0.2668,0.2661,0.2678,0.2675,0.2678,0.2585,0.257,0.2683,0.2683,0.2683,0.2683,0.2683,0.2683,0.2357,0.2415,0.2413,0.2478,0.2488,0.2531,0.2547,0.2566,0.2582,0.2634,0.2663,0.2669,0.2684,0.2719,0.2751,0.2753,0.2766,0.2785,0.2784,0.2697,0.2685,0.2673,0.2659,0.2788,0.2789,0.2873,0.2874,0.2874]}]]